When you browse on this site, cookies collect data to enhance your experience and personalize the content and advertising you see.
Visit our Privacy Policy to learn more. By continuing to use the site, you agree to this use of cookies and data.

Hourly Weather Biskira

Today, 29 September, Tuesday

Time Temperature Precipitation Wind Pressure Humidity
00:00 +26°C° 0 mm 1 mps 754 mmHg 23%
01:00 +25°C° 0 mm 1 mps 754 mmHg 23%
02:00 +25°C° 0 mm 1 mps 754 mmHg 24%
03:00 +24°C° 0 mm 1 mps 754 mmHg 25%
04:00 +24°C° 0 mm 1 mps 754 mmHg 26%
05:00 +24°C° 0 mm 2 mps 754 mmHg 27%
06:00 +24°C° 0 mm 2 mps 755 mmHg 27%
07:00 +26°C° 0 mm 3 mps 755 mmHg 30%
08:00 +27°C° 0 mm 3 mps 755 mmHg 34%
09:00 +28°C° 0 mm 4 mps 755 mmHg 37%
10:00 +29°C° 0 mm 3 mps 755 mmHg 35%
11:00 +30°C° 0 mm 3 mps 755 mmHg 33%
12:00 +31°C° 0 mm 3 mps 755 mmHg 30%
13:00 +31°C° 0 mm 2 mps 754 mmHg 30%
14:00 +31°C° 0 mm 2 mps 753 mmHg 29%
15:00 +32°C° 0 mm 1 mps 753 mmHg 28%
16:00 +31°C° 0 mm 1 mps 753 mmHg 30%
17:00 +31°C° 0 mm 2 mps 753 mmHg 31%
18:00 +31°C° 0 mm 2 mps 753 mmHg 33%
19:00 +30°C° 0 mm 2 mps 753 mmHg 33%
20:00 +30°C° 0 mm 2 mps 753 mmHg 34%
21:00 +29°C° 0 mm 2 mps 754 mmHg 34%
22:00 +29°C° 0 mm 2 mps 753 mmHg 36%
23:00 +28°C° 0 mm 1 mps 753 mmHg 37%

Tomorrow, 30 September, Wednesday

Time Temperature Precipitation Wind Pressure Humidity
00:00 +28°C° 0 mm 1 mps 753 mmHg 39%
01:00 +27°C° 0 mm 1 mps 752 mmHg 40%
02:00 +27°C° 0 mm 1 mps 752 mmHg 41%
03:00 +26°C° 0 mm 1 mps 752 mmHg 42%
04:00 +26°C° 0 mm 1 mps 752 mmHg 43%
05:00 +26°C° 0 mm 1 mps 752 mmHg 43%
06:00 +26°C° 0 mm 1 mps 752 mmHg 43%
07:00 +28°C° 0 mm 2 mps 752 mmHg 40%
08:00 +29°C° 0 mm 2 mps 752 mmHg 37%
09:00 +30°C° 0 mm 2 mps 752 mmHg 33%
10:00 +31°C° 0 mm 2 mps 751 mmHg 31%
11:00 +32°C° 0 mm 2 mps 751 mmHg 29%
12:00 +34°C° 0 mm 2 mps 750 mmHg 27%
13:00 +35°C° 0 mm 2 mps 750 mmHg 26%
14:00 +36°C° 0 mm 2 mps 749 mmHg 24%
15:00 +37°C° 0 mm 2 mps 749 mmHg 22%
16:00 +36°C° 0 mm 2 mps 749 mmHg 24%
17:00 +35°C° 0 mm 3 mps 748 mmHg 25%
18:00 +35°C° 0 mm 4 mps 748 mmHg 27%
19:00 +34°C° 0 mm 4 mps 749 mmHg 27%
20:00 +34°C° 0 mm 4 mps 749 mmHg 27%
21:00 +34°C° 0 mm 4 mps 749 mmHg 27%
22:00 +33°C° 0 mm 4 mps 748 mmHg 28%
23:00 +33°C° 0 mm 4 mps 748 mmHg 29%

Day after tomorrow, 1 October, Thursday

Time Temperature Precipitation Wind Pressure Humidity
00:00 +32°C° 0 mm 4 mps 748 mmHg 30%
01:00 +32°C° 0 mm 4 mps 748 mmHg 31%
02:00 +30°C° 0 mm 3 mps 747 mmHg 32%
03:00 +30°C° 0 mm 3 mps 747 mmHg 33%
04:00 +30°C° 0 mm 2 mps 747 mmHg 34%
05:00 +29°C° 0 mm 2 mps 747 mmHg 34%
06:00 +29°C° 0 mm 2 mps 747 mmHg 35%
07:00 +30°C° 0 mm 2 mps 747 mmHg 32%
08:00 +33°C° 0 mm 3 mps 747 mmHg 30%
09:00 +34°C° 0 mm 4 mps 747 mmHg 27%
10:00 +36°C° 0 mm 4 mps 747 mmHg 26%
11:00 +37°C° 0 mm 4 mps 747 mmHg 24%
12:00 +39°C° 0 mm 5 mps 747 mmHg 22%
13:00 +39°C° 0 mm 6 mps 746 mmHg 21%
14:00 +39°C° 0 mm 6 mps 746 mmHg 19%
15:00 +39°C° 0 mm 7 mps 745 mmHg 18%
16:00 +38°C° 0 mm 6 mps 746 mmHg 19%
17:00 +35°C° 0 mm 6 mps 746 mmHg 20%
18:00 +34°C° 0 mm 5 mps 746 mmHg 21%
19:00 +34°C° 0 mm 5 mps 746 mmHg 22%
20:00 +33°C° 0 mm 4 mps 747 mmHg 23%
21:00 +32°C° 0 mm 4 mps 747 mmHg 25%
22:00 +32°C° 0 mm 4 mps 747 mmHg 25%
23:00 +30°C° 0 mm 4 mps 746 mmHg 26%

2 October, Friday

Time Temperature Precipitation Wind Pressure Humidity
00:00 +30°C° 0 mm 3 mps 746 mmHg 27%
01:00 +29°C° 0 mm 4 mps 746 mmHg 28%
02:00 +28°C° 0 mm 4 mps 745 mmHg 29%
03:00 +28°C° 0 mm 4 mps 745 mmHg 30%
04:00 +27°C° 0 mm 4 mps 745 mmHg 29%
05:00 +27°C° 0 mm 4 mps 745 mmHg 29%
06:00 +27°C° 0 mm 3 mps 745 mmHg 29%
07:00 +28°C° 0 mm 3 mps 745 mmHg 30%
08:00 +29°C° 0 mm 3 mps 745 mmHg 31%
09:00 +31°C° 0 mm 3 mps 745 mmHg 31%
10:00 +33°C° 0 mm 3 mps 745 mmHg 29%
11:00 +32°C° 0 mm 2 mps 744 mmHg 27%
12:00 +34°C° 0 mm 2 mps 744 mmHg 25%
13:00 +35°C° 0 mm 2 mps 743 mmHg 23%
14:00 +35°C° 0 mm 3 mps 743 mmHg 22%
15:00 +36°C° 0 mm 4 mps 742 mmHg 20%
16:00 +35°C° 0 mm 4 mps 742 mmHg 21%
17:00 +35°C° 0 mm 4 mps 742 mmHg 21%
18:00 +34°C° 0 mm 4 mps 742 mmHg 21%
19:00 +34°C° 0 mm 4 mps 742 mmHg 22%
20:00 +33°C° 0 mm 4 mps 742 mmHg 22%
21:00 +33°C° 0 mm 4 mps 742 mmHg 23%
22:00 +32°C° 0 mm 4 mps 742 mmHg 25%
23:00 +30°C° 0 mm 4 mps 742 mmHg 27%

3 October, Saturday

Time Temperature Precipitation Wind Pressure Humidity
00:00 +30°C° 0 mm 3 mps 741 mmHg 28%
01:00 +29°C° 0 mm 5 mps 741 mmHg 31%
02:00 +29°C° 0 mm 6 mps 741 mmHg 33%
03:00 +28°C° 0 mm 7 mps 741 mmHg 35%
04:00 +28°C° 0 mm 7 mps 741 mmHg 37%
05:00 +27°C° 0 mm 7 mps 741 mmHg 39%
06:00 +27°C° 0 mm 7 mps 742 mmHg 41%
07:00 +28°C° 0 mm 7 mps 742 mmHg 38%
08:00 +29°C° 0 mm 8 mps 743 mmHg 36%
09:00 +31°C° 0 mm 8 mps 743 mmHg 33%
10:00 +31°C° 0 mm 8 mps 743 mmHg 32%
11:00 +32°C° 0 mm 9 mps 743 mmHg 32%
12:00 +33°C° 0 mm 9 mps 743 mmHg 31%
13:00 +32°C° 0 mm 10 mps 743 mmHg 30%
14:00 +32°C° 0 mm 10 mps 743 mmHg 30%
15:00 +32°C° 0 mm 11 mps 743 mmHg 29%
16:00 +29°C° 0 mm 10 mps 744 mmHg 26%
17:00 +28°C° 0 mm 10 mps 745 mmHg 24%
18:00 +27°C° 0 mm 10 mps 745 mmHg 22%
19:00 +26°C° 0 mm 9 mps 746 mmHg 23%
20:00 +26°C° 0 mm 8 mps 746 mmHg 24%
21:00 +24°C° 0 mm 7 mps 747 mmHg 25%
22:00 +24°C° 0 mm 7 mps 747 mmHg 26%
23:00 +24°C° 0 mm 7 mps 747 mmHg 26%

4 October, Sunday

Time Temperature Precipitation Wind Pressure Humidity
00:00 +23°C° 0 mm 7 mps 747 mmHg 27%
01:00 +23°C° 0 mm 7 mps 747 mmHg 29%
02:00 +22°C° 0 mm 7 mps 747 mmHg 31%
03:00 +22°C° 0 mm 7 mps 747 mmHg 33%
04:00 +21°C° 0 mm 7 mps 747 mmHg 35%
05:00 +21°C° 0 mm 7 mps 748 mmHg 37%
06:00 +21°C° 0 mm 6 mps 748 mmHg 39%
07:00 +22°C° 0 mm 6 mps 748 mmHg 36%
08:00 +23°C° 0 mm 6 mps 748 mmHg 34%
09:00 +26°C° 0 mm 7 mps 749 mmHg 31%
10:00 +27°C° 0 mm 6 mps 749 mmHg 29%
11:00 +28°C° 0 mm 6 mps 748 mmHg 26%
12:00 +30°C° 0 mm 6 mps 748 mmHg 23%
13:00 +30°C° 0 mm 6 mps 748 mmHg 21%
14:00 +30°C° 0 mm 6 mps 747 mmHg 19%
15:00 +30°C° 0 mm 6 mps 747 mmHg 17%
16:00 +29°C° 0 mm 6 mps 747 mmHg 18%
17:00 +28°C° 0 mm 6 mps 747 mmHg 19%
18:00 +27°C° 0 mm 6 mps 748 mmHg 20%
19:00 +27°C° 0 mm 6 mps 748 mmHg 20%
20:00 +27°C° 0 mm 5 mps 749 mmHg 21%
21:00 +26°C° 0 mm 5 mps 749 mmHg 21%
22:00 +26°C° 0 mm 5 mps 749 mmHg 22%
23:00 +25°C° 0 mm 5 mps 749 mmHg 23%
Show more